Regional Weather Roundup
Issued by NWS Cleveland, OH

Home | Current Version | Previous Version | Graphics & Text | Print | Product List | Glossary On
Versions: 1 2 3 4 5 6 7 8 9 10 11 12 13 14 15 16 17 18 19 20 21 22 23 24 25 26 27 28 29 30 31 32 33 34 35 36 37 38 39 40 41 42 43 44 45 46 47 48 49 50
000
ASUS41 KCLE 241210
RWRCLE
OHIO REGIONAL WEATHER ROUNDUP
NATIONAL WEATHER SERVICE CLEVELAND, OH
800 AM EDT WED AUG 24 2016

NOTE: "FAIR" INDICATES FEW OR NO CLOUDS BELOW 12,000 FEET WITH NO
SIGNIFICANT WEATHER AND/OR OBSTRUCTIONS TO VISIBILITY.

OHZ001>008-015>018-024>027-034-035-043-044-241300-
   NORTHWEST OHIO

CITY           SKY/WX    TMP DP  RH WIND       PRES   REMARKS
DEFIANCE       MOSUNNY   67  59  75 S8        30.15S
FINDLAY        MOSUNNY   66  58  75 S8        30.17F
TOLEDO EXPRESS CLOUDY    62  61  96 S5        30.16S
TOLEDO EXEC    CLOUDY    64  61  90 SE5       30.17F
LIMA           CLOUDY    65  62  90 S8        30.18F
$$

OHZ009>014-019>023-028>033-038-089-241300-
   NORTHEAST OHIO

CITY           SKY/WX    TMP DP  RH WIND       PRES   REMARKS
CLE-HOPKINS    MOSUNNY   67  58  72 S6        30.23F
CLE-LAKEFRONT  SUNNY     69  58  67 SE10      30.20S
CUY CO. ARPT   MOSUNNY   68  61  77 S7        30.23R
LORAIN-ELYRIA  CLOUDY    62  57  83 S5        30.23R
ASHTABULA      SUNNY     61  60  97 S3        30.25S
AKRON-CANTON   MOSUNNY   65  59  81 S5        30.24S
WOOSTER        CLOUDY    59  57  93 CALM      30.25R FOG
MANSFIELD      CLOUDY    65  59  81 S8        30.24R
YOUNGSTOWN     MOSUNNY   64  59  83 SE7       30.25R
$$

OHZ042-051>053-060>062-070>072-077>081-241300-
  SOUTHWEST OHIO

CITY           SKY/WX    TMP DP  RH WIND       PRES   REMARKS
CINC-COVINGTON CLOUDY    68  64  87 S6        30.20R
CINC-LUNKEN    MOSUNNY   66  65  96 CALM      30.21R
HAMILTON       CLOUDY    68  64  87 CALM      30.21R
DAYTON         CLOUDY    67  62  84 SE5       30.21R
WRIGHT-PAT AFB PTSUNNY   67  62  84 SE5       30.20R
DAYTON GENERAL CLOUDY    67  61  81 S7        30.20R
WILMINGTON     PTSUNNY   68  63  84 S3        30.22R
$$

OHZ036-037-039>041-045>050-054>059-063>069-073>076-082>088-241300-
  CENTRAL AND SOUTHEAST OHIO

CITY           SKY/WX    TMP DP  RH WIND       PRES   REMARKS
COLUMBUS       PTSUNNY   66  59  78 SE3       30.21S
OSU AIRPORT    CLOUDY    66  61  84 SE3       30.22R
BOLTON FIELD   MOSUNNY   63  61  94 S3        30.22S
RICKENBACK AFB MOSUNNY   62  60  94 CALM      30.22S
NEWARK         CLOUDY    60  59  96 CALM      30.23R FOG
MARION         MOSUNNY   64  59  83 S8        30.22S
LANCASTER      MOSUNNY   63  61  93 CALM      30.23R
ZANESVILLE     CLOUDY    60  58  92 CALM      30.24R
NEW PHILLY     CLOUDY    63  59  87 SE3       30.25R
$$



USA.gov is the U.S. government's official web portal to all federal, state and local government web resources and services.